Change the Weather History Date:

Friday, September 16, 2011

  Actual Average Record
Temperature  
Mean Temperature 55 °F 68 °F  
Max Temperature 65 °F 78 °F 98 °F (1991)
Min Temperature 45 °F 58 °F 41 °F (1873)
Degree Days  
Heating Degree Days 10 1  
Month to date heating degree days 14 8  
Since 1 July heating degree days 14 9  
Cooling Degree Days 0 4  
Month to date cooling degree days 106 96  
Year to date cooling degree days 1491 1106  
Growing Degree Days 4 (Base 50)    
Moisture  
Dew Point 44 °F    
Average Humidity 69    
Maximum Humidity 93    
Minimum Humidity 44    
Precipitation  
Precipitation 0.00 in 0.15 in 5.02 in (1999)
Month to date precipitation 9.51 2.04  
Year to date precipitation 42.45 29.89  
Snow  
Snow 0.00 in 0.00 in - ()
Month to date snowfall 0.0 0.0  
Since 1 July snowfall 0.0 0.0  
Snow Depth 0.00 in    
Sea Level Pressure  
Sea Level Pressure 30.31 in    
Wind  
Wind Speed 3 mph (WNW)    
Max Wind Speed 12 mph    
Max Gust Speed 17 mph    
Visibility 10 miles    
Events      
T = Trace of Precipitation, MM = Missing Value Source: NWS Daily Summary

Daily Weather History Graph

Daily Weather History Graph

Search for Another Location

Airport or City:

Trip Planner

Search our weather history database for the weather conditions in past years. The results will help you decide how hot, cold, wet, or windy it might be!

Date:

Astronomy

Sep. 16, 2011 Rise Set
Actual Time 6:48 AM EDT 7:13 PM EDT
Civil Twilight 6:21 AM EDT 7:40 PM EDT
Nautical Twilight 5:50 AM EDT 8:12 PM EDT
Astronomical Twilight 5:17 AM EDT 8:44 PM EDT
Moon 9:05 PM EDT (9/16) 10:49 AM EDT (9/16)
Length of Visible Light 13h 18m
Length of Day
12h 25m
Waning Gibbous, 84% of the Moon is Illuminated
Sep 16
Waning Gibbous
Sep 20
Last Quarter
Sep 27
New
Oct 3
First Quarter
Oct 11
Full

Hourly Weather History & Observations

Time (EDT) Temp. Windchill Dew Point Humidity Pressure Visibility Wind Dir Wind Speed Gust Speed Precip Events Conditions
12:54 AM 48.9 °F - 46.0 °F 90% 30.22 in 10.0 mi WNW 3.5 mph - N/A   Partly Cloudy
1:54 AM 48.9 °F - 44.1 °F 83% 30.23 in 10.0 mi WNW 3.5 mph - N/A   Scattered Clouds
2:54 AM 48.9 °F - 44.1 °F 83% 30.24 in 10.0 mi Calm Calm - N/A   Scattered Clouds
3:54 AM 46.9 °F - 43.0 °F 86% 30.25 in 10.0 mi WSW 4.6 mph - N/A   Mostly Cloudy
4:54 AM 46.9 °F - 42.1 °F 83% 30.26 in 10.0 mi West 3.5 mph - N/A   Scattered Clouds
5:54 AM 46.9 °F - 42.1 °F 83% 30.27 in 10.0 mi Calm Calm - N/A   Partly Cloudy
6:54 AM 45.0 °F 42.6 °F 42.1 °F 90% 30.30 in 10.0 mi SSW 4.6 mph - N/A   Scattered Clouds
7:54 AM 48.2 °F - 44.6 °F 87% 30.33 in 10.0 mi SW 3.5 mph - N/A   Mostly Cloudy
8:54 AM 53.1 °F - 43.0 °F 69% 30.34 in 10.0 mi Variable 4.6 mph - N/A   Mostly Cloudy
9:54 AM 57.0 °F - 42.1 °F 57% 30.35 in 10.0 mi Variable 4.6 mph - N/A   Scattered Clouds
10:54 AM 60.1 °F - 41.0 °F 49% 30.35 in 10.0 mi North 8.1 mph - N/A   Mostly Cloudy
11:54 AM 61.0 °F - 41.0 °F 48% 30.35 in 10.0 mi NNE 5.8 mph - N/A   Mostly Cloudy
12:54 PM 63.0 °F - 41.0 °F 45% 30.35 in 10.0 mi Calm Calm - N/A   Overcast
2:54 PM 64.0 °F - 42.1 °F 45% 30.33 in 10.0 mi Calm Calm - N/A   Mostly Cloudy
3:54 PM 64.0 °F - 42.1 °F 45% 30.32 in 10.0 mi Variable 3.5 mph - N/A   Mostly Cloudy
4:54 PM 63.0 °F - 44.1 °F 50% 30.30 in 10.0 mi NW 5.8 mph - N/A   Mostly Cloudy
5:54 PM 62.1 °F - 45.0 °F 53% 30.31 in 10.0 mi Variable 4.6 mph - N/A   Overcast
6:54 PM 61.0 °F - 46.9 °F 60% 30.31 in 10.0 mi Calm Calm - N/A   Mostly Cloudy
7:54 PM 60.1 °F - 46.9 °F 62% 30.32 in 10.0 mi Calm Calm - N/A   Mostly Cloudy
8:54 PM 57.0 °F - 48.9 °F 74% 30.33 in 10.0 mi Calm Calm - N/A   Mostly Cloudy
9:54 PM 57.0 °F - 48.9 °F 74% 30.35 in 10.0 mi Calm Calm - N/A   Mostly Cloudy
10:54 PM 55.0 °F - 50.0 °F 83% 30.35 in 10.0 mi Calm Calm - N/A   Mostly Cloudy
11:54 PM 55.0 °F - 50.0 °F 83% 30.34 in 10.0 mi Calm Calm - N/A   Mostly Cloudy